Weather in Kimry

Russia / Tver Oblast     56°52′24″N   37°21′20″E
temp.,
°C
wind,
m/s
gust,
m/s
humid.,
%
clouds,
%
prec.,
mm/h
press.,
hPa
HPBL,
m
7 march, sun
sun700:00−9ssw4108619 0.0 1009286
03:00−8ssw6138860 0.1 1005753
06:00−6ssw71491100 1.3 9991010
09:00−4sw81591100 2.9 9941218
12:00−1sw71488100 0.9 9921214
15:00−3w41056100 2.0 9921433
18:00−6sw237567 0.0 99222
21:00−5wnw398983 1.6 993794
8 march, mon
mon800:00−9wsw3109033 0.0 993299
03:00−8wsw399366 0.1 993501
06:00−8w3795100 0.8 994522
09:00−8nnw4889100 1.1 996524
12:00−7nw4784100 0.1 1000658
15:00−7nnw4780100 0.2 1003982
18:00−9nnw4887100 0.1 1007671
21:00−12nnw399394 0.1 1009430
9 march, tue
tue900:00−14nnw389579 0.0 1011336
03:00−16nnw279784 0.1 1014259
06:00−19nnw269747 0.0 1015192
09:00−18nnw359143 0.0 1017301
12:00−15nnw358280 0.0 1018517
15:00−13nnw357988 0.0 1019687
18:00−16n268999 0.0 1020231
21:00−20n269550 0.0 1023151
10 march, wed
wed1000:00−22nne24970 0.0 102585
03:00−24n22970 0.0 102643
06:00−24nne22970 0.0 102735
09:00−22nne23880 0.0 1028192
12:00−16nne22690 0.0 1028409
15:00−13n23650 0.0 1028714
18:00−16nne22850 0.0 102822
21:00−20nne12920 0.0 103020
11 march, thu
thu1100:00−21n01920 0.0 103020
03:00−21w11920 0.0 103120
06:00−21wsw12920 0.0 103120
09:00−17sw12820 0.0 1032159
12:00−11ssw12700 0.0 1031409
15:00−9ssw23650 0.0 1031715
18:00−12s23830 0.0 103050
21:00−15s39900 0.0 1030219